Powrót do katalogu

ONEWEB-0712

AktywnyŁącznośćPO
NORAD 54680·PAYLOAD·🇬🇧 United Kingdom

Wystrzelony Dec 8, 2022 z Cape Canaveral Space Force Station

Loading…

Następne Przeloty (najbliższe 24 godziny)

TLE

ŚwieżeSource: CelesTrak SupGP

Epoka: Sep 14, 2026, 07:15 UTC

1 54680C 22166AQ  26257.30256944  .00002162  00000+0  56612-2 0  2574
2 54680  87.9146 211.0805 0002514  74.8837  30.0350 13.16589478    10

Śledź ONEWEB-0712 w czasie rzeczywistym z AllMySat

Download on the App Store